STARLINK-32329 (62736 NORAD) Tracking and Keplerian Element Data

This shows tracking and keplerian element data for the satellite.

Feedback or suggestion? Click here.




ElementValue
Catalog62736
NameSTARLINK-32329
Epoch Orbit221
Epoch Day35.25001157
Epoch Year2025
RAAN253.8901
Inclination42.9993
Eccentricity0.0002002
Argument of Perigee282.5436
Mean Anonmoly77.0736
Mean Motion15.64344115
Decay Rate-0.01493524
L11 62736U 25014B 25035.25001157 -.01493524 00000+0 -16970-1 0 9995
L22 62736 42.9993 253.8901 0002002 282.5436 77.0736 15.64344115 2213



Live tracking and technical data element details for STARLINK-32329 (NORAD 62736). STARLINK-32329 can be tracked NOW for your location showing map with azimuth and elevation plus other details from your city location.







IsCatalogInMostPopularTable: catalog: 62736, numindb: 3
Update: records affected: 1



GetName: 62736 STARLINK-32329

Hit Count: updated at: Sun, 09 Feb 2025 15:12:41 GMT